<?xml version='1.0' encoding='UTF-8'?>
<gpx creator="Esri" version="1.0" xalan="http://xml.apache.org/xalan" xmlns="http://www.topografix.com/GPX/1/1" xsi="http://www.w3.org/2001/XMLSchema-instance"><trk><name> </name><desc> </desc><trkseg><trkpt lat="45.3863162452" lon="6.73019274748"><ele>0</ele><time> </time></trkpt><trkpt lat="45.3863162452" lon="6.73019274748"><ele>0</ele><time> </time></trkpt><trkpt lat="45.3863565863" lon="6.73017242682"><ele>0</ele><time> </time></trkpt><trkpt lat="45.3863565863" lon="6.73017242682"><ele>0</ele><time> </time></trkpt><trkpt lat="45.3864618576" lon="6.7301513451"><ele>0</ele><time> </time></trkpt><trkpt lat="45.3864618576" lon="6.7301513451"><ele>0</ele><time> </time></trkpt><trkpt lat="45.3865158245" lon="6.73015496569"><ele>0</ele><time> </time></trkpt><trkpt lat="45.3865158245" lon="6.73015496569"><ele>0</ele><time> </time></trkpt><trkpt lat="45.3866129353" lon="6.73021649029"><ele>0</ele><time> </time></trkpt><trkpt lat="45.3866129353" lon="6.73021649029"><ele>0</ele><time> </time></trkpt><trkpt lat="45.3866676444" lon="6.7302790082"><ele>0</ele><time> </time></trkpt><trkpt lat="45.3866676444" lon="6.7302790082"><ele>0</ele><time> </time></trkpt><trkpt lat="45.3867209013" lon="6.7303580596"><ele>0</ele><time> </time></trkpt><trkpt lat="45.3867209013" lon="6.7303580596"><ele>0</ele><time> </time></trkpt><trkpt lat="45.386754972" lon="6.73044477894"><ele>0</ele><time> </time></trkpt><trkpt lat="45.386754972" lon="6.73044477894"><ele>0</ele><time> </time></trkpt><trkpt lat="45.3867699714" lon="6.73048160557"><ele>0</ele><time> </time></trkpt><trkpt lat="45.3867699714" lon="6.73048160557"><ele>0</ele><time> </time></trkpt><trkpt lat="45.3868148057" lon="6.73062405699"><ele>0</ele><time> </time></trkpt><trkpt lat="45.3868148057" lon="6.73062405699"><ele>0</ele><time> </time></trkpt><trkpt lat="45.3868881262" lon="6.73096671123"><ele>0</ele><time> </time></trkpt><trkpt lat="45.3868881262" lon="6.73096671123"><ele>0</ele><time> </time></trkpt><trkpt lat="45.3869212796" lon="6.73116211006"><ele>0</ele><time> </time></trkpt><trkpt lat="45.3869212796" lon="6.73116211006"><ele>0</ele><time> </time></trkpt><trkpt lat="45.3868932454" lon="6.73124594172"><ele>0</ele><time> </time></trkpt><trkpt lat="45.3868932454" lon="6.73124594172"><ele>0</ele><time> </time></trkpt><trkpt lat="45.3868781498" lon="6.73134727249"><ele>0</ele><time> </time></trkpt><trkpt lat="45.3868781498" lon="6.73134727249"><ele>0</ele><time> </time></trkpt><trkpt lat="45.3868506204" lon="6.73157825707"><ele>0</ele><time> </time></trkpt><trkpt lat="45.3868506204" lon="6.73157825707"><ele>0</ele><time> </time></trkpt><trkpt lat="45.3868380589" lon="6.7317117402"><ele>0</ele><time> </time></trkpt><trkpt lat="45.3868380589" lon="6.7317117402"><ele>0</ele><time> </time></trkpt><trkpt lat="45.3868256065" lon="6.73176079701"><ele>0</ele><time> </time></trkpt><trkpt lat="45.3868256065" lon="6.73176079701"><ele>0</ele><time> </time></trkpt><trkpt lat="45.3867981127" lon="6.73177430322"><ele>0</ele><time> </time></trkpt><trkpt lat="45.3867981127" lon="6.73177430322"><ele>0</ele><time> </time></trkpt><trkpt lat="45.3867605912" lon="6.73176410905"><ele>0</ele><time> </time></trkpt><trkpt lat="45.3867605912" lon="6.73176410905"><ele>0</ele><time> </time></trkpt><trkpt lat="45.386740153" lon="6.73172819631"><ele>0</ele><time> </time></trkpt><trkpt lat="45.386740153" lon="6.73172819631"><ele>0</ele><time> </time></trkpt><trkpt lat="45.3867280382" lon="6.73170537037"><ele>0</ele><time> </time></trkpt><trkpt lat="45.3867280382" lon="6.73170537037"><ele>0</ele><time> </time></trkpt><trkpt lat="45.3867356817" lon="6.73176260603"><ele>0</ele><time> </time></trkpt><trkpt lat="45.3867356817" lon="6.73176260603"><ele>0</ele><time> </time></trkpt><trkpt lat="45.3867453475" lon="6.73183108046"><ele>0</ele><time> </time></trkpt><trkpt lat="45.3867453475" lon="6.73183108046"><ele>0</ele><time> </time></trkpt><trkpt lat="45.3867239752" lon="6.73187486135"><ele>0</ele><time> </time></trkpt><trkpt lat="45.3867239752" lon="6.73187486135"><ele>0</ele><time> </time></trkpt><trkpt lat="45.3866841288" lon="6.73189931683"><ele>0</ele><time> </time></trkpt><trkpt lat="45.3866841288" lon="6.73189931683"><ele>0</ele><time> </time></trkpt><trkpt lat="45.3866562364" lon="6.73189970646"><ele>0</ele><time> </time></trkpt><trkpt lat="45.3866562364" lon="6.73189970646"><ele>0</ele><time> </time></trkpt><trkpt lat="45.3866263846" lon="6.73193500567"><ele>0</ele><time> </time></trkpt><trkpt lat="45.3866263846" lon="6.73193500567"><ele>0</ele><time> </time></trkpt><trkpt lat="45.3865812006" lon="6.73195232127"><ele>0</ele><time> </time></trkpt><trkpt lat="45.3865812006" lon="6.73195232127"><ele>0</ele><time> </time></trkpt><trkpt lat="45.3865338473" lon="6.73191523013"><ele>0</ele><time> </time></trkpt><trkpt lat="45.3865338473" lon="6.73191523013"><ele>0</ele><time> </time></trkpt><trkpt lat="45.3865063579" lon="6.73185573383"><ele>0</ele><time> </time></trkpt><trkpt lat="45.3865063579" lon="6.73185573383"><ele>0</ele><time> </time></trkpt><trkpt lat="45.3864864458" lon="6.73183178973"><ele>0</ele><time> </time></trkpt><trkpt lat="45.3864864458" lon="6.73183178973"><ele>0</ele><time> </time></trkpt><trkpt lat="45.3864669578" lon="6.73184291512"><ele>0</ele><time> </time></trkpt><trkpt lat="45.3864669578" lon="6.73184291512"><ele>0</ele><time> </time></trkpt><trkpt lat="45.3864508633" lon="6.73180000981"><ele>0</ele><time> </time></trkpt><trkpt lat="45.3864508633" lon="6.73180000981"><ele>0</ele><time> </time></trkpt><trkpt lat="45.3864266277" lon="6.73173847154"><ele>0</ele><time> </time></trkpt><trkpt lat="45.3864266277" lon="6.73173847154"><ele>0</ele><time> </time></trkpt><trkpt lat="45.3864113283" lon="6.73169561966"><ele>0</ele><time> </time></trkpt><trkpt lat="45.3864113283" lon="6.73169561966"><ele>0</ele><time> </time></trkpt><trkpt lat="45.3863757516" lon="6.73168757998"><ele>0</ele><time> </time></trkpt><trkpt lat="45.3863757516" lon="6.73168757998"><ele>0</ele><time> </time></trkpt><trkpt lat="45.3863784005" lon="6.7316438002"><ele>0</ele><time> </time></trkpt><trkpt lat="45.3863784005" lon="6.7316438002"><ele>0</ele><time> </time></trkpt><trkpt lat="45.386338413" lon="6.73158898935"><ele>0</ele><time> </time></trkpt><trkpt lat="45.386338413" lon="6.73158898935"><ele>0</ele><time> </time></trkpt><trkpt lat="45.3863206164" lon="6.73154936137"><ele>0</ele><time> </time></trkpt><trkpt lat="45.3863206164" lon="6.73154936137"><ele>0</ele><time> </time></trkpt><trkpt lat="45.3862935836" lon="6.731500069"><ele>0</ele><time> </time></trkpt><trkpt lat="45.3862935836" lon="6.731500069"><ele>0</ele><time> </time></trkpt><trkpt lat="45.3862962195" lon="6.73144485672"><ele>0</ele><time> </time></trkpt><trkpt lat="45.3862962195" lon="6.73144485672"><ele>0</ele><time> </time></trkpt><trkpt lat="45.3863172861" lon="6.73138635907"><ele>0</ele><time> </time></trkpt><trkpt lat="45.3863172861" lon="6.73138635907"><ele>0</ele><time> </time></trkpt><trkpt lat="45.3863239342" lon="6.73133028514"><ele>0</ele><time> </time></trkpt><trkpt lat="45.3863239342" lon="6.73133028514"><ele>0</ele><time> </time></trkpt><trkpt lat="45.3863316772" lon="6.73126524013"><ele>0</ele><time> </time></trkpt><trkpt lat="45.3863316772" lon="6.73126524013"><ele>0</ele><time> </time></trkpt><trkpt lat="45.3863365462" lon="6.73120522939"><ele>0</ele><time> </time></trkpt><trkpt lat="45.3863365462" lon="6.73120522939"><ele>0</ele><time> </time></trkpt><trkpt lat="45.3863420251" lon="6.73116984999"><ele>0</ele><time> </time></trkpt><trkpt lat="45.3863420251" lon="6.73116984999"><ele>0</ele><time> </time></trkpt><trkpt lat="45.386354242" lon="6.73113788814"><ele>0</ele><time> </time></trkpt><trkpt lat="45.386354242" lon="6.73113788814"><ele>0</ele><time> </time></trkpt><trkpt lat="45.3863847014" lon="6.73109950033"><ele>0</ele><time> </time></trkpt><trkpt lat="45.3863847014" lon="6.73109950033"><ele>0</ele><time> </time></trkpt><trkpt lat="45.386403742" lon="6.7310921416"><ele>0</ele><time> </time></trkpt><trkpt lat="45.386403742" lon="6.7310921416"><ele>0</ele><time> </time></trkpt><trkpt lat="45.3864133073" lon="6.73108646253"><ele>0</ele><time> </time></trkpt><trkpt lat="45.3864133073" lon="6.73108646253"><ele>0</ele><time> </time></trkpt><trkpt lat="45.3864348008" lon="6.73107839977"><ele>0</ele><time> </time></trkpt><trkpt lat="45.3864348008" lon="6.73107839977"><ele>0</ele><time> </time></trkpt><trkpt lat="45.3864676412" lon="6.73103358715"><ele>0</ele><time> </time></trkpt><trkpt lat="45.3864676412" lon="6.73103358715"><ele>0</ele><time> </time></trkpt><trkpt lat="45.3864948011" lon="6.73098529997"><ele>0</ele><time> </time></trkpt><trkpt lat="45.3864948011" lon="6.73098529997"><ele>0</ele><time> </time></trkpt><trkpt lat="45.3865125012" lon="6.73096060003"><ele>0</ele><time> </time></trkpt><trkpt lat="45.3865125012" lon="6.73096060003"><ele>0</ele><time> </time></trkpt><trkpt lat="45.3865381223" lon="6.73092640708"><ele>0</ele><time> </time></trkpt><trkpt lat="45.3865381223" lon="6.73092640708"><ele>0</ele><time> </time></trkpt><trkpt lat="45.3865726359" lon="6.73091854886"><ele>0</ele><time> </time></trkpt><trkpt lat="45.3865726359" lon="6.73091854886"><ele>0</ele><time> </time></trkpt><trkpt lat="45.386603337" lon="6.73095339083"><ele>0</ele><time> </time></trkpt><trkpt lat="45.386603337" lon="6.73095339083"><ele>0</ele><time> </time></trkpt><trkpt lat="45.3866098999" lon="6.73101939491"><ele>0</ele><time> </time></trkpt><trkpt lat="45.3866098999" lon="6.73101939491"><ele>0</ele><time> </time></trkpt><trkpt lat="45.3866098474" lon="6.73111660731"><ele>0</ele><time> </time></trkpt><trkpt lat="45.3866098474" lon="6.73111660731"><ele>0</ele><time> </time></trkpt><trkpt lat="45.3866066153" lon="6.73121360632"><ele>0</ele><time> </time></trkpt><trkpt lat="45.3866066153" lon="6.73121360632"><ele>0</ele><time> </time></trkpt><trkpt lat="45.3866300669" lon="6.73132256902"><ele>0</ele><time> </time></trkpt><trkpt lat="45.3866300669" lon="6.73132256902"><ele>0</ele><time> </time></trkpt><trkpt lat="45.3866622503" lon="6.7313846407"><ele>0</ele><time> </time></trkpt><trkpt lat="45.3866622503" lon="6.7313846407"><ele>0</ele><time> </time></trkpt><trkpt lat="45.3867027946" lon="6.73143483885"><ele>0</ele><time> </time></trkpt><trkpt lat="45.3867027946" lon="6.73143483885"><ele>0</ele><time> </time></trkpt><trkpt lat="45.386709389" lon="6.73147597704"><ele>0</ele><time> </time></trkpt><trkpt lat="45.386709389" lon="6.73147597704"><ele>0</ele><time> </time></trkpt><trkpt lat="45.3866918451" lon="6.73154827585"><ele>0</ele><time> </time></trkpt><trkpt lat="45.3866918451" lon="6.73154827585"><ele>0</ele><time> </time></trkpt><trkpt lat="45.3867127509" lon="6.73161411314"><ele>0</ele><time> </time></trkpt><trkpt lat="45.3867127509" lon="6.73161411314"><ele>0</ele><time> </time></trkpt><trkpt lat="45.3867171455" lon="6.73163973044"><ele>0</ele><time> </time></trkpt><trkpt lat="45.3867171455" lon="6.73163973044"><ele>0</ele><time> </time></trkpt><trkpt lat="45.3867214555" lon="6.73166485594"><ele>0</ele><time> </time></trkpt><trkpt lat="45.3867214555" lon="6.73166485594"><ele>0</ele><time> </time></trkpt><trkpt lat="45.3867227561" lon="6.73167243606"><ele>0</ele><time> </time></trkpt><trkpt lat="45.3867227561" lon="6.73167243606"><ele>0</ele><time> </time></trkpt><trkpt lat="45.3867280382" lon="6.73170537037"><ele>0</ele><time> </time></trkpt><trkpt lat="45.3867280382" lon="6.73170537037"><ele>0</ele><time> </time></trkpt><trkpt lat="45.386740153" lon="6.73172819631"><ele>0</ele><time> </time></trkpt><trkpt lat="45.386740153" lon="6.73172819631"><ele>0</ele><time> </time></trkpt><trkpt lat="45.3867605912" lon="6.73176410905"><ele>0</ele><time> </time></trkpt><trkpt lat="45.3867605912" lon="6.73176410905"><ele>0</ele><time> </time></trkpt><trkpt lat="45.3867981127" lon="6.73177430322"><ele>0</ele><time> </time></trkpt><trkpt lat="45.3867981127" lon="6.73177430322"><ele>0</ele><time> </time></trkpt><trkpt lat="45.3868256065" lon="6.73176079701"><ele>0</ele><time> </time></trkpt><trkpt lat="45.3868256065" lon="6.73176079701"><ele>0</ele><time> </time></trkpt><trkpt lat="45.3868380589" lon="6.7317117402"><ele>0</ele><time> </time></trkpt><trkpt lat="45.3868380589" lon="6.7317117402"><ele>0</ele><time> </time></trkpt><trkpt lat="45.3868506204" lon="6.73157825707"><ele>0</ele><time> </time></trkpt><trkpt lat="45.3868506204" lon="6.73157825707"><ele>0</ele><time> </time></trkpt><trkpt lat="45.3868781498" lon="6.73134727249"><ele>0</ele><time> </time></trkpt><trkpt lat="45.3868781498" lon="6.73134727249"><ele>0</ele><time> </time></trkpt><trkpt lat="45.3868932454" lon="6.73124594172"><ele>0</ele><time> </time></trkpt><trkpt lat="45.3868932454" lon="6.73124594172"><ele>0</ele><time> </time></trkpt><trkpt lat="45.3869212796" lon="6.73116211006"><ele>0</ele><time> </time></trkpt><trkpt lat="45.3869212796" lon="6.73116211006"><ele>0</ele><time> </time></trkpt><trkpt lat="45.3868881262" lon="6.73096671123"><ele>0</ele><time> </time></trkpt><trkpt lat="45.3868881262" lon="6.73096671123"><ele>0</ele><time> </time></trkpt><trkpt lat="45.3868148057" lon="6.73062405699"><ele>0</ele><time> </time></trkpt><trkpt lat="45.3868148057" lon="6.73062405699"><ele>0</ele><time> </time></trkpt><trkpt lat="45.3867699714" lon="6.73048160557"><ele>0</ele><time> </time></trkpt><trkpt lat="45.3867699714" lon="6.73048160557"><ele>0</ele><time> </time></trkpt><trkpt lat="45.386754972" lon="6.73044477894"><ele>0</ele><time> </time></trkpt><trkpt lat="45.386754972" lon="6.73044477894"><ele>0</ele><time> </time></trkpt><trkpt lat="45.3867209013" lon="6.7303580596"><ele>0</ele><time> </time></trkpt><trkpt lat="45.3867209013" lon="6.7303580596"><ele>0</ele><time> </time></trkpt><trkpt lat="45.3866676444" lon="6.7302790082"><ele>0</ele><time> </time></trkpt><trkpt lat="45.3866676444" lon="6.7302790082"><ele>0</ele><time> </time></trkpt><trkpt lat="45.3866129353" lon="6.73021649029"><ele>0</ele><time> </time></trkpt><trkpt lat="45.3866129353" lon="6.73021649029"><ele>0</ele><time> </time></trkpt><trkpt lat="45.3865158245" lon="6.73015496569"><ele>0</ele><time> </time></trkpt><trkpt lat="45.3865158245" lon="6.73015496569"><ele>0</ele><time> </time></trkpt><trkpt lat="45.3864618576" lon="6.7301513451"><ele>0</ele><time> </time></trkpt><trkpt lat="45.3864618576" lon="6.7301513451"><ele>0</ele><time> </time></trkpt><trkpt lat="45.3863565863" lon="6.73017242682"><ele>0</ele><time> </time></trkpt><trkpt lat="45.3863565863" lon="6.73017242682"><ele>0</ele><time> </time></trkpt><trkpt lat="45.3863274124" lon="6.73018712201"><ele>0</ele><time> </time></trkpt><trkpt lat="45.3863274124" lon="6.73018712201"><ele>0</ele><time> </time></trkpt></trkseg></trk></gpx>